Location: Claremont
(33.9858°S, 18.4575°E)
Time: 06:06:26
(UTC+00:00)

deb Transit VC - Pass Details

Date: 02 October 2021
Orbit: 840 x 910 km, 90.5° (Epoch: 27 October)

Event Time Altitude Azimuth Distance (km) Brightness Sun altitude
Rises 03:32:23 0° 164° (SSE) 3,429 ? -10.9°
Reaches altitude 10° 03:35:06 10° 153° (SSE) 2,490 ? -10.4°
Maximum altitude 03:39:55 29° 93° (E) 1,518 ? -9.4°
Drops below altitude 10° 03:44:42 10° 34° (NNE) 2,490 ? -8.4°
Sets 03:47:24 0° 23° (NNE) 3,429 ? -7.9°
